Location: Poznań
(52.4062°N, 16.9234°E)
Time: 06:25:52
(UTC+02:00)

ISS - Pass Details

Date: 28 January 2019
Orbit: 411 x 421 km, 51.6° (Epoch: 19 October)

Event Time Altitude Azimuth Distance (km) Brightness Sun altitude
Rises 19:12:03 0° 267° (W) 2,419 1.5 -24.4°
Reaches altitude 10° 19:14:10 10° 266° (W) 1,552 0.2 -24.7°
Enters shadow 19:16:25 38° 262° (W) 694 -2.2 -25.1°
